Weather observations for the past three days for
Tappahannock-Essex County Airport
Imperial (Metric)
Date Time (edt) Wind (mph) Vis. (mi.) Weather Sky Cond. Temperature (ºF) Relative Humidity Wind Chill (°F) Heat Index (°F) Pressure Precipitation (in)
Air Dwpt 6 hour altimeter (in) sea level (mb) 1 hr 3 hr 6 hr
Max. Min.
14 05:35 S 5 10.00 Partly Cloudy SCT090 68.4 66.6 94% 29.95 0.0
14 05:15 S 3 10.00 Mostly Cloudy BKN090 68.7 66.2 92% 29.96 0.0
14 04:55 S 3 10.00 Partly Cloudy SCT085 68.9 65.7 89% 29.95 0.0
14 04:35 S 3 10.00 Partly Cloudy SCT085 68.5 65.8 91% 29.96 0.0
14 04:15 S 3 10.00 Fair CLR 68.9 65.5 89% 29.96 0.0
14 03:55 S 5 10.00 Fair CLR 69.3 65.5 88% 29.95 0.0
14 03:35 S 3 10.00 Fair CLR 69.3 65.3 87% 29.96 0.0
14 03:15 S 3 10.00 Fair CLR 69.8 65.3 86% 29.96 0.0
14 02:55 S 3 10.00 Fair CLR 70 65.3 85% 29.96 0.0
14 02:35 S 3 10.00 Fair CLR 70.3 65.3 84% 29.96 0.0
14 02:15 S 5 10.00 Fair CLR 70.9 65.3 83% 29.96 0.0
14 01:55 S 5 10.00 Fair CLR 71.1 65.3 82 71.1 82% 29.97 0.0
14 01:35 S 5 10.00 Fair CLR 71.4 65.3 81% 29.97 0.0
14 01:15 S 5 10.00 Fair CLR 71.8 65.3 80% 29.97 0.0
14 00:55 S 5 10.00 Fair CLR 72.1 65.3 79% 29.97 0.0
14 00:35 S 3 10.00 Fair CLR 72.9 65.3 77% 29.98 0.0
14 00:15 S 5 10.00 Fair CLR 73.4 64.9 75% 29.98 0.0
13 23:55 S 6 10.00 Fair CLR 73.6 64.9 74% 29.98 0.0
13 23:35 S 6 10.00 Fair CLR 73.6 64.8 74% 29.98 0.0
13 23:15 S 5 10.00 Fair CLR 73.9 64.6 73% 29.99 0.0
13 22:55 S 5 10.00 Fair CLR 74.3 64.8 72% 29.99 0.0
13 22:35 S 3 10.00 Fair CLR 74.7 64.8 71% 29.99 0.0
13 22:15 Calm 10.00 Fair CLR 75.4 64.8 70% 77 29.99 0.0
13 21:55 S 3 10.00 Fair CLR 76.1 65.3 69% 78 29.98 0.0
13 21:35 S 5 10.00 Fair CLR 76.6 65.1 68% 78 29.98 0.0
13 21:15 S 5 10.00 Fair CLR 77.7 65.1 65% 80 29.98 0.0
13 20:55 S 6 10.00 Fair CLR 78.8 65.1 63% 81 29.98 0.0
13 20:35 S 6 10.00 Fair CLR 79.9 65.3 61% 82 29.98 0.0
13 20:15 S 6 10.00 Fair CLR 81 65.5 59% 83 29.98 0.0
13 19:55 SE 6 10.00 Fair CLR 82 65.7 89.8 82 58% 84 29.97 0.0
13 19:35 SE 9 10.00 Fair CLR 83.1 66 56% 85 29.98 0.0
13 19:15 S 8 10.00 Fair CLR 84.2 66.2 55% 87 29.97 0.0
13 18:55 S 7 10.00 Fair CLR 84.6 66.2 54% 87 29.97 0.0
13 18:35 S 9 10.00 Partly Cloudy SCT090 85.3 66.2 53% 88 29.97 0.0
13 18:15 S 9 10.00 Partly Cloudy SCT090 85.1 66.4 54% 88 29.97 0.0
13 17:55 S 6 10.00 Partly Cloudy SCT048 87.1 66.2 50% 90 29.97 0.0
13 17:35 S 7 10.00 Partly Cloudy SCT050 87.3 65.1 48% 89 29.97 0.0
13 17:15 S 5 10.00 Partly Cloudy SCT050 SCT065 86.5 66.6 51% 89 29.97 0.0
13 16:55 SE 8 G 16 10.00 Mostly Cloudy BKN050 BKN070 88.5 66.4 48% 91 29.97 0.0
13 16:35 SW 7 10.00 Partly Cloudy SCT050 SCT090 88.9 64.9 45% 91 29.98 0.0
13 16:15 S 8 10.00 Partly Cloudy SCT050 SCT090 89.1 64.9 45% 91 29.98 0.0
13 15:55 S 6 G 9 10.00 Partly Cloudy SCT050 SCT070 SCT090 89.8 64.2 43% 91 29.98 0.0
13 15:35 S 7 10.00 Mostly Cloudy SCT050 SCT070 BKN090 87.6 63.3 44% 89 29.99 0.0
13 15:15 SE 6 10.00 Partly Cloudy SCT050 SCT070 88.3 64.6 45% 90 29.99 0.0
13 14:55 S 6 10.00 Partly Cloudy SCT048 SCT055 88.9 64 44% 90 30 0.0
13 14:35 SW 6 7.00 Partly Cloudy SCT044 SCT055 88.3 64.9 46% 90 30.01 0.0
13 14:15 SE 8 5.00 Partly Cloudy with Haze SCT042 SCT055 86.5 66 51% 89 30.02 0.0
13 13:55 S 6 10.00 Fair CLR 87.3 66.9 87.6 70.3 51% 90 30.02 0.0
13 13:35 S 9 10.00 Fair CLR 86.9 66.2 50% 89 30.02 0.0
13 13:15 S 8 10.00 Partly Cloudy SCT040 SCT050 SCT060 87.3 66.4 50% 90 30.03 0.0
13 12:55 S 8 10.00 Partly Cloudy SCT040 SCT050 86 67.1 53% 89 30.03 0.0
13 12:35 S 8 10.00 Partly Cloudy SCT032 SCT038 85.8 67.3 54% 89 30.03 0.0
13 12:15 SW 7 10.00 Partly Cloudy SCT029 85.3 67.8 56% 89 30.03 0.0
13 11:15 S 5 10.00 Fair CLR 82 67.3 61% 85 30.04 0.0
13 10:55 SW 7 10.00 Fair CLR 81.5 67.5 63% 84 30.05 0.0
13 10:35 S 8 10.00 Fair CLR 80.6 67.8 65% 83 30.05 0.0
13 10:15 S 5 10.00 Partly Cloudy SCT050 79.2 67.5 68% 81 30.06 0.0
13 09:55 S 7 10.00 Partly Cloudy SCT050 79.2 67.6 68% 81 30.06 0.0
13 09:35 S 9 10.00 Fair CLR 78.1 67.1 69% 80 30.06 0.0
13 09:15 S 8 10.00 Fair CLR 76.1 68 76% 77 30.07 0.0
13 08:55 S 7 10.00 Fair CLR 74.5 68 80% 30.06 0.0
13 08:35 S 7 10.00 Fair CLR 74.1 68 81% 30.06 0.0
13 08:15 S 6 10.00 Fair CLR 72 68.2 88% 30.06 0.0
13 07:55 S 6 10.00 Fair CLR 70 68 70 60.8 93% 30.06 0.0
13 07:35 S 3 10.00 Fair CLR 67.8 67.3 98% 30.06 0.0
13 07:15 Calm 10.00 Fair CLR 65.7 65.7 100% 30.06 0.0
13 06:55 Calm 10.00 Fair CLR 63.7 63.7 100% 30.06 0.0
13 06:35 Calm 7.00 Fair CLR 61.7 61.7 100% 30.05 0.0
13 06:15 Calm 10.00 Partly Cloudy SCT050 SCT085 62.1 62.1 100% 30.05 0.0
13 05:55 Calm 10.00 Mostly Cloudy SCT050 SCT065 BKN075 63.1 63.1 100% 30.04 0.0
13 05:35 Calm 10.00 Overcast SCT050 BKN055 OVC075 63.7 63.7 100% 30.03 0.0
13 05:15 Calm 10.00 Overcast BKN048 OVC060 63.5 63.5 100% 30.03 0.0
13 04:55 Calm 10.00 Overcast OVC048 62.6 62.6 100% 30.02 0.0
13 04:35 Calm 10.00 Partly Cloudy SCT048 60.8 60.8 100% 30.02 0.0
13 04:15 Calm 10.00 Fair CLR 61.7 61.7 100% 30.02 0.0
13 03:55 Calm 10.00 Fair CLR 62.6 62.6 100% 30.01 0.0
13 03:35 Calm 10.00 Fair CLR 62.1 62.1 100% 30.02 0.0
13 03:15 Calm 10.00 Fair CLR 62.6 62.6 100% 30.01 0.0
13 02:55 Calm 10.00 Fair CLR 63.9 63.9 100% 30.02 0.0
13 02:35 Calm 10.00 Fair CLR 63.3 63.3 100% 30.02 0.0
13 02:15 Calm 10.00 Fair CLR 63.1 63.1 100% 30.02 0.0
13 01:55 Calm 10.00 Fair CLR 61.7 61.7 75.9 61.7 100% 30.03 0.0
13 01:35 Calm 10.00 Fair CLR 61.9 61.9 100% 30.03 0.0
13 01:15 Calm 10.00 Fair CLR 64.2 64 99% 30.04 0.0
13 00:55 Calm 10.00 Fair CLR 65.3 62.1 89% 30.04 0.0
13 00:35 Calm 10.00 Fair CLR 66.2 61.9 86% 30.04 0.0
13 00:15 Calm 10.00 Fair CLR 66.2 61.7 86% 30.05 0.0
12 23:55 Calm 10.00 Fair CLR 66.4 61.2 83% 30.04 0.0
12 23:35 Calm 10.00 Fair CLR 66.6 61 82% 30.04 0.0
12 23:15 Calm 10.00 Fair CLR 66.6 60.8 82% 30.05 0.0
12 22:55 Calm 10.00 Fair CLR 67.1 60.8 80% 30.05 0.0
12 22:35 Calm 10.00 Fair CLR 66.7 60.8 81% 30.05 0.0
12 22:15 Calm 10.00 Fair CLR 67.8 61.3 80% 30.05 0.0
12 21:55 Calm 10.00 Fair CLR 69.8 60.8 73% 30.04 0.0
12 21:35 Calm 10.00 Fair CLR 70.3 61.3 73% 30.03 0.0
12 21:15 SE 3 10.00 Fair CLR 70.5 62.6 76% 30.02 0.0
12 20:55 Calm 10.00 Fair CLR 72.3 62.8 72% 30.02 0.0
12 20:35 Calm 10.00 Fair CLR 73.4 62.8 70% 30.02 0.0
12 20:15 Calm 10.00 Fair CLR 74.7 62.8 67% 30.02 0.0
12 19:55 S 3 10.00 Fair CLR 76.1 62.8 82.2 76.1 63% 78 30.02 0.0
12 19:35 S 6 10.00 Fair CLR 77 62.6 61% 79 30.02 0.0
12 19:15 SE 6 10.00 Partly Cloudy SCT085 77.9 62.2 59% 80 30.02 0.0
12 18:55 SE 5 10.00 Partly Cloudy SCT085 78.1 62.2 58% 80 30.02 0.0
12 18:35 SE 7 10.00 Partly Cloudy SCT085 78.4 61.9 57% 80 30.02 0.0
12 18:15 SE 7 10.00 Partly Cloudy SCT060 SCT085 78.4 61.3 56% 80 30.02 0.0
12 17:55 SE 6 10.00 Partly Cloudy SCT050 SCT075 SCT085 78.1 61.5 57% 80 30.02 0.0
12 17:35 SE 7 10.00 Mostly Cloudy SCT050 SCT075 BKN085 78.3 61.2 56% 80 30.02 0.0
12 17:15 S 5 10.00 Partly Cloudy SCT085 80.6 59.2 48% 81 30.02 0.0
12 16:55 SE 5 10.00 Partly Cloudy SCT065 SCT075 81.5 59.5 47% 82 30.03 0.0
12 16:35 Calm 10.00 Mostly Cloudy SCT065 BKN075 79.2 59.4 51% 80 30.03 0.0
12 16:15 SW 3 10.00 Mostly Cloudy BKN075 79.7 58.6 49% 80 30.03 0.0
12 15:55 S 3 10.00 Mostly Cloudy SCT065 SCT075 BKN080 82 58.8 45% 82 30.03 0.0
12 15:35 S 7 10.00 Mostly Cloudy SCT049 BKN065 BKN075 79.9 58.8 49% 81 30.04 0.0
12 15:15 NW 3 10.00 Overcast SCT055 OVC075 79 58.1 49% 80 30.04 0.0
12 14:55 Calm 10.00 Overcast SCT047 BKN065 OVC075 79.3 57.6 47% 80 30.05 0.0
12 14:35 SE 5 10.00 Overcast BKN050 BKN060 OVC075 79 58.8 50% 80 30.05 0.0
12 14:15 Calm 10.00 Overcast OVC050 78.6 58.3 50% 80 30.05 0.0
12 13:35 Calm 10.00 Mostly Cloudy BKN060 BKN070 79.7 56.5 45% 80 30.06 0.0
12 13:15 SE 3 10.00 Mostly Cloudy BKN050 77.9 56.5 48% 79 30.07 0.0
12 12:55 SE 5 10.00 Partly Cloudy SCT048 SCT055 78.3 56.5 47% 79 30.07 0.0
12 12:35 SW 3 10.00 Mostly Cloudy BKN048 BKN050 BKN070 77.4 55.6 47% 79 30.08 0.0
12 12:15 E 5 10.00 Overcast BKN048 OVC060 77.4 55.8 47% 79 30.08 0.0
12 11:55 W 3 10.00 Mostly Cloudy BKN048 BKN060 76.6 54.9 47% 78 30.09 0.0
12 11:35 NW 3 10.00 Overcast OVC050 76.5 54.9 47% 78 30.08 0.0
12 11:15 Calm 10.00 Overcast OVC050 76.8 55 47% 78 30.09 0.0
12 10:55 Calm 10.00 Mostly Cloudy BKN050 75.2 55.4 50% 78 30.08 0.0
12 10:35 Calm 10.00 Fair CLR 74.8 55 50% 30.08 0.0
12 10:15 N 5 10.00 Fair CLR 73.6 55.2 53% 30.08 0.0
12 09:55 N 6 10.00 Fair CLR 73.2 55 53% 30.08 0.0
12 09:35 N 3 10.00 Fair CLR 72.7 56.5 57% 30.08 0.0
12 09:15 N 5 10.00 Fair CLR 71.2 56.3 59% 30.08 0.0
12 08:35 NE 3 10.00 Fair CLR 69.3 58.8 70% 30.08 0.0
12 08:15 N 3 10.00 Fair CLR 67.8 61 79% 30.07 0.0
12 07:55 Calm 10.00 Fair CLR 66 60.8 66.2 54.5 83% 30.07 0.0
12 07:35 N 3 10.00 Fair CLR 64.8 61.3 89% 30.07 0.0
12 07:15 N 5 10.00 Partly Cloudy SCT050 62.1 61.9 99% 30.06 0.0
12 06:55 Calm 10.00 Partly Cloudy SCT050 SCT080 59 59 100% 30.07 0.0
12 06:35 Calm 10.00 Overcast BKN055 OVC080 56.5 56.5 100% 30.07 0.0
12 06:15 Calm 10.00 Mostly Cloudy BKN055 55.6 55.6 100% 30.07 0.0
12 05:55 Calm 10.00 Partly Cloudy SCT055 SCT065 56.3 56.3 100% 30.07 0.0
12 05:35 Calm 10.00 Mostly Cloudy BKN065 BKN075 55.8 55.8 100% 30.06 0.0
12 05:15 Calm 10.00 Mostly Cloudy SCT065 BKN075 55.2 55.2 100% 30.06 0.0
12 04:55 Calm 10.00 Mostly Cloudy BKN065 55.8 55.8 100% 30.05 0.0
12 04:35 Calm 10.00 Partly Cloudy SCT060 SCT075 56.3 56.3 100% 30.05 0.0
12 04:15 Calm 10.00 Overcast SCT060 OVC075 57.4 57.4 100% 30.05 0.0
12 03:55 Calm 10.00 Overcast BKN060 OVC075 56.8 56.8 100% 30.05 0.0
12 03:35 Calm 10.00 Overcast BKN060 OVC075 56.3 56.3 100% 30.05 0.0
12 03:15 Calm 10.00 Overcast OVC060 55.4 55.4 100% 30.04 0.0
12 02:55 Calm 10.00 Partly Cloudy SCT060 54.7 54.7 100% 30.04 0.0
12 02:35 Calm 10.00 Partly Cloudy SCT060 54.7 54.7 100% 30.03 0.0
12 02:15 Calm 10.00 Partly Cloudy SCT060 55.6 55.6 100% 30.03 0.0
12 01:55 Calm 10.00 Fair CLR 56.3 56.3 70 55.4 100% 30.03 0.0
12 01:35 Calm 10.00 Partly Cloudy SCT060 56.3 56.3 100% 30.03 0.0
12 01:15 Calm 10.00 Partly Cloudy SCT060 56.5 56.5 100% 30.03 0.0
12 00:55 Calm 10.00 Fair CLR 58.1 58.1 100% 30.03 0.0
12 00:35 Calm 10.00 Fair CLR 57.7 57.7 100% 30.03 0.0
12 00:15 Calm 10.00 Partly Cloudy SCT080 57.6 57.6 100% 30.03 0.0
11 23:55 Calm 10.00 Mostly Cloudy BKN080 59 58.5 98% 30.03 0.0
11 23:35 Calm 10.00 Overcast OVC070 60.3 59 96% 30.02 0.0
11 23:15 Calm 10.00 Mostly Cloudy BKN080 59.4 58.8 98% 30.03 0.0
11 22:55 Calm 10.00 Partly Cloudy SCT080 58.5 57.7 97% 30.02 0.0
11 22:35 Calm 10.00 Fair CLR 59.7 57.4 92% 30.02 0.0
11 22:15 Calm 10.00 Fair CLR 59.9 57.4 91% 30.02 0.0
11 21:35 Calm 10.00 Fair CLR 62.2 57 83% 30 0.0
11 21:15 Calm 10.00 Fair CLR 62.6 57.2 83% 29.99 0.0
11 20:55 Calm 10.00 Fair CLR 63.7 57.2 80% 29.98 0.0
11 20:35 Calm 10.00 Fair CLR 64.6 57.4 78% 29.97 0.0
11 20:15 Calm 10.00 Fair CLR 67.6 57.4 70% 29.97 0.0
11 19:55 Calm 10.00 Fair CLR 70.2 56.3 77.9 70.2 62% 29.97 0.0
11 19:35 N 3 10.00 Fair CLR 72.3 55.6 56% 29.96 0.0
11 19:15 NW 3 10.00 Fair CLR 73.2 55.4 54% 29.96 0.0
11 18:55 N 5 10.00 Fair CLR 73.9 55.8 53% 29.95 0.0
11 18:35 N 8 10.00 Fair CLR 74.8 55.2 51% 29.95 0.0
11 18:15 N 7 10.00 Fair CLR 75.7 55.6 50% 78 29.95 0.0
11 17:55 N 7 10.00 Partly Cloudy SCT060 75.6 55.2 49% 78 29.94 0.0
11 17:35 N 7 10.00 Partly Cloudy SCT060 SCT065 75.9 55.9 50% 78 29.94 0.0
11 17:15 NW 3 10.00 Partly Cloudy SCT049 SCT060 77 55.2 47% 79 29.94 0.0
11 16:55 N 6 10.00 Mostly Cloudy BKN049 BKN070 77.2 55.6 47% 79 29.94 0.0
11 16:35 Calm 7.00 Mostly Cloudy BKN049 BKN070 74.1 55.6 52% 29.94 0.0
11 16:15 Calm 10.00 Partly Cloudy SCT047 SCT055 SCT065 77.9 56.1 47% 79 29.94 0.0
11 15:55 NE 6 10.00 Mostly Cloudy SCT047 SCT060 BKN065 76.1 57 52% 78 29.94 0.0
11 15:35 Calm 7.00 Mostly Cloudy SCT047 SCT050 BKN075 75.7 55.4 49% 78 29.94 0.0
11 15:15 N 5 10.00 Mostly Cloudy SCT050 SCT075 BKN080 77.2 55.8 48% 79 29.94 0.0
11 14:55 N 6 10.00 Overcast SCT050 BKN060 OVC075 74.8 56.8 54% 29.95 0.0
11 14:35 N 5 10.00 Overcast BKN050 OVC075 74.1 56.5 54% 29.95 0.0
11 14:15 N 7 10.00 Mostly Cloudy SCT046 SCT055 BKN075 74.7 57.4 55% 29.95 0.0
11 13:55 N 5 10.00 Mostly Cloudy SCT043 SCT050 BKN075 76.6 57.6 76.6 65.8 52% 78 29.95 0.0
11 13:35 NW 6 10.00 Overcast BKN041 BKN048 OVC065 73.6 57 56% 29.95 0.0
11 13:15 N 3 10.00 Overcast SCT039 BKN048 OVC065 74.8 57.2 54% 29.95 0.0
11 12:55 N 9 10.00 Mostly Cloudy SCT041 BKN055 BKN070 75 56.8 53% 78 29.94 0.0
11 12:35 N 6 10.00 Partly Cloudy SCT039 75 55.9 52% 78 29.94 0.0
11 12:15 N 6 10.00 Fair CLR 74.5 55.6 52% 29.94 0.0
11 11:55 N 6 10.00 Fair CLR 74.5 54.7 50% 29.94 0.0
11 11:35 N 8 10.00 Fair CLR 73.2 54.9 53% 29.94 0.0
11 11:15 N 7 10.00 Fair CLR 73.8 55.8 53% 29.94 0.0
11 10:55 NW 7 10.00 Fair CLR 73 56.8 57% 29.94 0.0
11 10:35 N 8 10.00 Fair CLR 73 56.7 57% 29.94 0.0
11 10:15 NW 9 10.00 Fair CLR 71.8 56.5 59% 29.94 0.0
11 09:55 NW 6 10.00 Partly Cloudy SCT075 70.9 55.9 59% 29.94 0.0
11 09:35 N 6 10.00 Mostly Cloudy BKN075 69.6 56.7 64% 29.95 0.0
11 09:15 N 8 10.00 Mostly Cloudy BKN075 70.2 56.8 63% 29.95 0.0
11 08:55 N 6 10.00 Mostly Cloudy BKN075 69.3 58.3 68% 29.95 0.0
11 08:35 N 6 10.00 Fair CLR 68.5 59.9 74% 29.95 0.0
11 08:15 NW 3 10.00 Fair CLR 67.3 61.9 83% 29.94 0.0
11 07:55 NW 3 10.00 Fair CLR 65.7 62.8 65.7 56.1 90% 29.94 0.0
11 07:35 Calm 10.00 Fair CLR 63.7 63.5 99% 29.93 0.0
11 07:15 Calm 10.00 Fair CLR 61.9 61.9 100% 29.92 0.0
11 06:35 Calm 10.00 Fair CLR 57.2 57.2 100% 29.91 0.0
11 06:15 Calm 10.00 Fair CLR 56.5 56.5 100% 29.91 0.0
11 05:55 Calm 4.00 Fog/Mist CLR 56.5 56.5 100% 29.9 0.0
Date Time (edt) Wind (mph) Vis. (mi.) Weather Sky Cond. Air Dwpt Max. Min. Relative Humidity Wind Chill (°F) Heat Index (°F) altimeter (in) sea level (mb) 1 hr 3 hr 6 hr
6 hour
Temperature (ºF) Pressure Precipitation (in)